[[{"header":{"parameterUnit":"m.s-1","parameterCategory":2,"la1":30.2991,"la2":30.254,"lo1":-89.0895,"lo2":-89.0444,"dy":0.0017,"dx":0.0017,"nx":28,"ny":28,"refTime":"2023-07-30T21:00:00:Z","depth":"0","parameterNumber":2,"parameterNumberName":"U-component_of_CURRENTS"},"data":[0,0,0,0,0,0,0,0,0,0,0,0,0,0,0,0,0,0,0,0,0,0,0,0,0,0,0,0,0,0,0,0,0,0,0,0,0,0,0,0,0,0,0,0,0,0,0,0,0,0,0,0,0,0,0,0,0,0,0.2426,0.2427,0,0.2477,0.2478,0.2478,0.2477,0.2477,0.2477,0.2476,0.2483,0.2483,0.2484,0,0,0,0,0,0,0,0,0,0,0,0,0,0.2308,0.231,0.2426,0.2427,0.2428,0.2477,0.2478,0.2478,0.2477,0.2477,0.2477,0.2476,0.2482,0.2483,0.2484,0,0,0,0,0,0,0,0,0,0,0,0,0,0.2356,0.2311,0.2426,0.2436,0.2438,0.2477,0.2478,0.2478,0.2477,0.2477,0.2476,0.2476,0.2482,0.2483,0.2484,0.2498,0,0,0.2486,0.2486,0,0,0,0,0,0,0,0,0.2353,0.236,0.2434,0.2436,0.2438,0.2474,0.2439,0.2484,0.2478,0.2458,0.2476,0.2476,0.2478,0.2479,0.2485,0.2499,0.2499,0.2486,0.2486,0.2487,0.2487,0,0,0,0,0,0,0,0.235,0.2357,0.2442,0.2435,0.2437,0.2432,0.2438,0.2447,0.2467,0.246,0.2461,0.2473,0.2478,0.2485,0.2485,0.2499,0.2486,0.2487,0.2487,0.2487,0.2713,0.2719,0,0,0,0,0,0,0.2353,0.2355,0.2441,0.2444,0.2397,0.2435,0.2442,0.246,0.2468,0.247,0.2473,0.2473,0.2484,0.2485,0.2486,0.2627,0.2487,0.2487,0.2488,0.2708,0.2715,0.2721,0,0,0,0,0,0,0.235,0.236,0.2439,0.2403,0.2413,0.2438,0.2458,0.2461,0.2474,0.2479,0.2479,0.2484,0.2483,0.2485,0.2528,0.2622,0.2488,0.2488,0.2701,0.271,0.2718,0.283,0,0,0,0,0,0,0.2347,0.2359,0.237,0.2404,0.2415,0.2472,0.2459,0.2462,0.2483,0.2483,0.2489,0.2488,0.2483,0.2528,0.2529,0.2621,0.2489,0.2694,0.2705,0.2715,0.282,0.2841,0.286,0,0,0,0,0,0.2342,0.2367,0.2371,0.2381,0.2431,0.2473,0.2478,0.2491,0.2484,0.2498,0.252,0.2488,0.2597,0.2531,0.2532,0.2626,0.2689,0.2702,0.2714,0.281,0.2837,0.286,0,0,0,0,0,0,0.2318,0.2371,0.2375,0.2413,0.2443,0.2474,0.2492,0.2498,0.2524,0.2527,0.2522,0.2525,0.2615,0.2607,0.2534,0.2734,0.2654,0.2667,0.2727,0.2752,0.2772,0.2853,0.2489,0,0,0,0,0,0.232,0.2355,0.2394,0.2425,0.2441,0.2465,0.2482,0.2496,0.2526,0.2536,0.2541,0.2586,0.2669,0.2692,0.2738,0.2811,0.291,0.2891,0.2912,0.2928,0.3003,0.3279,0.3332,0.2762,0.2762,0.2761,0,0,0.2319,0.2353,0.2372,0.2423,0.2445,0.2498,0.2474,0.2512,0.2579,0.2533,0.2607,0.2639,0.2706,0.2814,0.2856,0.2812,0.3129,0.2944,0.2957,0.3025,0.3299,0.3354,0.3404,0.277,0.2769,0.2767,0,0,0.2351,0.2366,0.2412,0.2441,0.2488,0.2518,0.2533,0.2569,0.2607,0.2673,0.2705,0.2823,0.2849,0.2981,0.3042,0.3212,0.3228,0.3191,0.3352,0.3618,0.3668,0.3713,0.3842,0.3898,0.32,0.32,0.32,0,0.2344,0.2435,0.2429,0.2481,0.2537,0.2535,0.2615,0.2651,0.27,0.2788,0.2713,0.2946,0.2977,0.3232,0.3293,0.3268,0.3354,0.3235,0.3647,0.3694,0.3739,0.3861,0.3921,0.3207,0.3206,0.3206,0.3205,0,0.2438,0.2496,0.2527,0.261,0.2643,0.2721,0.277,0.2832,0.2865,0.2929,0.3135,0.3198,0.3362,0.3391,0.3384,0.3725,0.3657,0.3635,0.3579,0.3804,0.3915,0.3977,0.3217,0.3215,0.3213,0.3211,0,0,0.2527,0.2585,0.2605,0.2689,0.2743,0.2811,0.2914,0.3078,0.3218,0.3263,0.348,0.3648,0.368,0.3763,0.3789,0.4009,0.436,0.3947,0.3957,0.4064,0.4858,0.4709,0.4759,0.4391,0.4404,0.4415,0.4782,0,0.2643,0.2776,0.2764,0.293,0.3045,0.3061,0.3167,0.3289,0.3386,0.3566,0.3717,0.389,0.3818,0.3906,0.4128,0.4294,0.4539,0.4258,0.4638,0.4649,0.4484,0.4836,0.4704,0.5015,0.4842,0.4852,0.4859,0,0.2839,0.2901,0.3062,0.319,0.3232,0.3303,0.3543,0.3623,0.3836,0.3903,0.4096,0.4153,0.4459,0.4363,0.4826,0.4628,0.4798,0.4918,0.4934,0.4823,0.4621,0.4782,0.5133,0.4977,0.4953,0.4946,0.4939,0,0.3079,0.317,0.3323,0.3363,0.3452,0.3551,0.3607,0.3774,0.3889,0.4136,0.4238,0.4535,0.4684,0.4976,0.5116,0.5028,0.5589,0.5503,0.555,0.5532,0.5522,0.5483,0.5779,0.5968,0.5968,0.5967,0.5965,0,0.3325,0.3462,0.3448,0.355,0.3734,0.3723,0.3941,0.4025,0.4175,0.431,0.4423,0.4582,0.4859,0.5113,0.5274,0.5562,0.5732,0.5697,0.5698,0.554,0.5501,0.5435,0.5348,0.598,0.5977,0.5974,0.5972,0,0.3611,0.3602,0.3787,0.3847,0.387,0.4006,0.4068,0.4174,0.4299,0.4481,0.4552,0.4739,0.5016,0.5241,0.5691,0.5747,0.5918,0.6116,0.5818,0.578,0.563,0.5552,0.5703,0.5563,0.6294,0.6293,0.6293,0,0.3775,0.3902,0.3988,0.4009,0.403,0.4159,0.4184,0.4267,0.4322,0.4534,0.4599,0.4902,0.5031,0.5544,0.5782,0.6106,0.5941,0.6142,0.6018,0.5718,0.5638,0.5352,0.5201,0.6023,0.6021,0.6019,0.6017,0,0.4028,0.4051,0.4098,0.4162,0.4193,0.4243,0.4274,0.4344,0.4388,0.452,0.4632,0.477,0.5185,0.5415,0.5787,0.5972,0.5846,0.6107,0.5984,0.5659,0.5204,0.5027,0.5554,0.5999,0.6001,0.6003,0.6004,0.6004,0.4127,0.4184,0.4172,0.4228,0.4236,0.4206,0.4213,0.4215,0.4289,0.4359,0.4553,0.4704,0.5094,0.5588,0.5693,0.5811,0.5763,0.5779,0.5771,0.5548,0.5261,0.5661,0.5961,0.5962,0.5963,0.5964,0.5965,0,0.413,0.413,0.4191,0.4163,0.4111,0.4156,0.4136,0.4081,0.4063,0.4233,0.4335,0.4701,0.4978,0.527,0.5593,0.5521,0.5296,0.5415,0.5062,0.4979,0.5569,0.5396,0.5359,0.5359,0.536,0.536,0.536,0.536,0.4088,0.4074,0.409,0.398,0.3958,0.3844,0.3805,0.3771,0.3849,0.3942,0.4112,0.4325,0.4754,0.5231,0.5307,0.524,0.4891,0.4729,0.4661,0.513,0.5161,0.5191,0.501,0.4893,0.4893,0.3889,0.3882,0.3877]},{"header":{"parameterUnit":"m.s-1","parameterCategory":2,"la1":30.2991,"la2":30.254,"lo1":-89.0895,"lo2":-89.0444,"dy":0.0017,"dx":0.0017,"nx":28,"ny":28,"refTime":"2023-07-30T21:00:00:Z","depth":"0","parameterNumber":3,"parameterNumberName":"V-component_of_CURRENTS"},"data":[0,0,0,0,0,0,0,0,0,0,0,0,0,0,0,0,0,0,0,0,0,0,0,0,0,0,0,0,0,0,0,0,0,0,0,0,0,0,0,0,0,0,0,0,0,0,0,0,0,0,0,0,0,0,0,0,0,0,-0.0068,-0.0069,0,-0.0111,-0.0111,-0.0112,-0.0124,-0.0124,-0.0123,-0.0123,-0.0166,-0.0167,-0.0169,0,0,0,0,0,0,0,0,0,0,0,0,0,-0.0048,-0.0048,-0.0068,-0.0069,-0.0069,-0.0111,-0.0111,-0.0112,-0.0124,-0.0124,-0.0123,-0.0123,-0.0165,-0.0167,-0.0169,0,0,0,0,0,0,0,0,0,0,0,0,0,-0.0071,-0.0048,-0.0068,-0.008,-0.0081,-0.0111,-0.0111,-0.0112,-0.0124,-0.0124,-0.0123,-0.0123,-0.0165,-0.0167,-0.0169,-0.0191,0,0,-0.0175,-0.0176,0,0,0,0,0,0,0,0,-0.007,-0.0072,-0.0078,-0.0079,-0.008,-0.0111,-0.012,-0.0138,-0.0124,-0.0109,-0.0123,-0.0123,-0.0147,-0.0151,-0.0161,-0.0193,-0.0195,-0.0176,-0.0177,-0.0178,-0.0178,0,0,0,0,0,0,0,-0.0068,-0.0071,-0.0086,-0.0078,-0.008,-0.01,-0.0102,-0.0124,-0.0131,-0.011,-0.0111,-0.0114,-0.0148,-0.0159,-0.0162,-0.0196,-0.0176,-0.0177,-0.0179,-0.018,-0.0105,-0.0102,0,0,0,0,0,0,-0.0059,-0.0069,-0.0085,-0.0087,-0.0073,-0.01,-0.0103,-0.0102,-0.013,-0.0134,-0.0115,-0.0115,-0.0155,-0.016,-0.0164,-0.0057,-0.0178,-0.018,-0.0181,-0.0108,-0.0104,-0.0101,0,0,0,0,0,0,-0.0058,-0.006,-0.0083,-0.0079,-0.0083,-0.0101,-0.01,-0.0103,-0.0109,-0.0134,-0.0138,-0.0116,-0.0155,-0.0161,-0.0157,-0.0064,-0.0181,-0.0183,-0.0112,-0.0107,-0.0103,0.007,0,0,0,0,0,0,-0.0058,-0.0059,-0.006,-0.0078,-0.0083,-0.0091,-0.0101,-0.0104,-0.0111,-0.0112,-0.0136,-0.014,-0.0155,-0.0153,-0.0159,-0.0069,-0.0184,-0.0116,-0.011,-0.0104,0.006,0.008,0.0097,0,0,0,0,0,-0.0057,-0.0055,-0.006,-0.0062,-0.0081,-0.009,-0.0095,-0.0107,-0.0112,-0.0111,-0.0113,-0.0139,-0.0116,-0.0154,-0.0161,-0.0069,-0.0119,-0.0112,-0.0105,0.0052,0.0076,0.0097,0,0,0,0,0,0,-0.005,-0.0056,-0.0062,-0.0063,-0.0072,-0.0092,-0.0096,-0.0104,-0.0109,-0.0106,-0.0128,-0.0131,-0.008,-0.0113,-0.0153,-0.0027,-0.011,-0.0104,0.0012,0.0034,0.0052,0.016,-0.0186,0,0,0,0,0,-0.0048,-0.0044,-0.0057,-0.0058,-0.0062,-0.0079,-0.0087,-0.0091,-0.0097,-0.0099,-0.0111,-0.0101,-0.0057,-0.0046,-0.004,-0.0,0.0029,0.0064,0.0083,0.0098,0.0184,0.0335,0.0378,-0.0077,-0.0077,-0.0077,0,0,-0.0043,-0.0049,-0.0046,-0.0056,-0.0066,-0.0037,-0.0082,-0.0085,-0.0027,-0.0104,-0.0045,-0.0053,-0.0035,0.0036,0.0058,0.0021,0.022,0.0108,0.0122,0.02,0.0348,0.0393,0.0433,-0.0072,-0.0073,-0.0073,0,0,-0.0011,-0.0039,-0.0012,-0.0015,-0.0022,-0.0021,-0.0017,-0.0029,-0.0001,0.0033,0.0037,0.0102,0.0091,0.018,0.0216,0.0338,0.0309,0.0311,0.0501,0.0646,0.0686,0.0723,0.0724,0.0759,0.0327,0.0328,0.0328,0,-0.0002,0.0043,-0.0008,0.0021,0.0055,-0.0001,0.0065,0.0076,0.0076,0.0159,0.0075,0.0225,0.0201,0.0413,0.0454,0.0394,0.0411,0.0411,0.0677,0.0713,0.0748,0.0742,0.0779,0.0337,0.0336,0.0335,0.0334,0,0.0077,0.0103,0.0115,0.0157,0.0169,0.0208,0.0225,0.0271,0.0284,0.0328,0.0493,0.0481,0.0603,0.0593,0.0555,0.081,0.0712,0.0676,0.0629,0.0805,0.0784,0.0819,0.035,0.0347,0.0344,0.0342,0,0,0.0182,0.0177,0.0192,0.026,0.0262,0.0308,0.0406,0.054,0.0692,0.0682,0.0907,0.0967,0.0975,0.1021,0.0996,0.111,0.1297,0.1001,0.1004,0.1018,0.1526,0.1326,0.1342,0.1305,0.1315,0.1322,0.1378,0,0.0296,0.0386,0.0357,0.0497,0.0579,0.0576,0.0698,0.0802,0.0878,0.1055,0.1124,0.1271,0.1133,0.1206,0.1312,0.1326,0.1415,0.128,0.1343,0.1344,0.1162,0.1389,0.1298,0.1334,0.1413,0.1418,0.1423,0,0.047,0.0503,0.0639,0.076,0.0798,0.0868,0.1118,0.1205,0.1408,0.1477,0.1633,0.1642,0.1829,0.1662,0.1824,0.1736,0.1672,0.1641,0.1642,0.1452,0.1218,0.119,0.1395,0.1035,0.1477,0.1472,0.1468,0,0.07,0.0759,0.089,0.0917,0.1003,0.1118,0.1187,0.1371,0.1515,0.1755,0.1884,0.2057,0.2155,0.2179,0.2049,0.1975,0.2172,0.2055,0.1811,0.1787,0.1731,0.1688,0.1635,0.2212,0.2212,0.2212,0.2212,0,0.0921,0.1039,0.1005,0.1091,0.1291,0.1297,0.1554,0.166,0.1858,0.2066,0.211,0.2298,0.2301,0.2355,0.2219,0.2119,0.2304,0.1928,0.1859,0.1766,0.1729,0.1423,0.1233,0.2214,0.2214,0.2213,0.2213,0,0.1183,0.1159,0.131,0.1374,0.1409,0.1556,0.1696,0.1878,0.2034,0.2311,0.2392,0.255,0.2613,0.2525,0.2547,0.2322,0.2034,0.2143,0.1948,0.1857,0.1253,0.1075,0.1077,0.0869,0.1931,0.1928,0.1925,0,0.1331,0.1425,0.1493,0.1542,0.1565,0.1725,0.1842,0.1981,0.2149,0.2446,0.2601,0.274,0.2846,0.2747,0.2447,0.2212,0.1933,0.1885,0.176,0.1285,0.104,0.0964,0.0783,0.1703,0.1698,0.1695,0.1692,0,0.1555,0.1559,0.1612,0.1716,0.1817,0.1963,0.212,0.2267,0.2453,0.2662,0.2897,0.3003,0.2902,0.2676,0.2313,0.2088,0.1583,0.1792,0.1452,0.1017,0.0805,0.0543,0.1472,0.1659,0.1662,0.1664,0.1666,0.1667,0.1657,0.1713,0.1733,0.1852,0.197,0.2145,0.2272,0.2431,0.2673,0.2956,0.3059,0.3251,0.2895,0.2419,0.2009,0.12,0.1304,0.095,0.0814,0.0812,0.0526,0.1291,0.1293,0.1294,0.1295,0.1296,0.1297,0,0.1706,0.1736,0.1847,0.1958,0.2104,0.217,0.2412,0.2534,0.2753,0.3057,0.324,0.3252,0.2611,0.2015,0.0992,0.0369,0.0172,0.0038,-0.0057,-0.0169,0.066,0.0551,0.0212,0.0213,0.0213,0.0213,0.0214,0.0214,0.1701,0.1762,0.182,0.2023,0.2127,0.2325,0.2455,0.2646,0.2885,0.3213,0.3433,0.3633,0.3249,0.1314,-0.01,-0.0461,-0.0913,-0.0956,-0.1177,-0.0643,-0.0568,-0.0496,-0.0641,-0.1225,-0.1226,-0.195,-0.1958,-0.1964]}],[{"header":{"parameterUnit":"m.s-1","parameterCategory":2,"la1":30.2991,"la2":30.254,"lo1":-89.0895,"lo2":-89.0444,"dy":0.0017,"dx":0.0017,"nx":28,"ny":28,"refTime":"2023-07-30T21:00:00:Z","depth":"2","parameterNumber":2,"parameterNumberName":"U-component_of_CURRENTS"},"data":[0,0,0,0,0,0,0,0,0,0,0,0,0,0,0,0,0,0,0,0,0,0,0,0,0,0,0,0,0,0,0,0,0,0,0,0,0,0,0,0,0,0,0,0,0,0,0,0,0,0,0,0,0,0,0,0,0,0,0.2091,0.2091,0,0.2121,0.2121,0.2121,0.2119,0.2118,0.2118,0.2118,0.2103,0.2103,0.2103,0,0,0,0,0,0,0,0,0,0,0,0,0,0.2004,0.2005,0.2091,0.2091,0.2092,0.2121,0.2121,0.2121,0.2119,0.2118,0.2118,0.2118,0.2103,0.2103,0.2102,0,0,0,0,0,0,0,0,0,0,0,0,0,0.2036,0.2006,0.2091,0.2096,0.2097,0.2121,0.2121,0.2121,0.2119,0.2118,0.2118,0.2118,0.2103,0.2103,0.2102,0.2107,0,0,0.2101,0.2101,0,0,0,0,0,0,0,0,0.2034,0.2039,0.2095,0.2096,0.2097,0.2118,0.2085,0.2115,0.2119,0.2107,0.2118,0.2118,0.2106,0.2105,0.2108,0.2106,0.2105,0.2101,0.2101,0.2101,0.2101,0,0,0,0,0,0,0,0.2032,0.2037,0.21,0.2096,0.2097,0.2088,0.2093,0.2091,0.2105,0.2108,0.2109,0.2117,0.2106,0.2109,0.2108,0.2105,0.2101,0.2101,0.2101,0.2101,0.2166,0.2168,0,0,0,0,0,0,0.2036,0.2035,0.2099,0.2101,0.2067,0.2091,0.2095,0.2109,0.2106,0.2106,0.2117,0.2117,0.2109,0.2108,0.2107,0.2177,0.2101,0.2101,0.2101,0.2164,0.2167,0.2169,0,0,0,0,0,0,0.2034,0.2042,0.2098,0.2071,0.2077,0.2093,0.2109,0.211,0.2123,0.2114,0.2113,0.213,0.2109,0.2108,0.2123,0.2174,0.2101,0.21,0.2162,0.2165,0.2168,0.2274,0,0,0,0,0,0,0.2032,0.2041,0.2054,0.2071,0.2079,0.2123,0.2109,0.2111,0.2129,0.2129,0.2124,0.2122,0.2109,0.2124,0.2123,0.2172,0.21,0.216,0.2164,0.2167,0.2268,0.228,0.2291,0,0,0,0,0,0.2028,0.2046,0.2055,0.2063,0.2097,0.2124,0.2128,0.2135,0.2131,0.2143,0.2143,0.2123,0.2146,0.2125,0.2123,0.2173,0.2158,0.2162,0.2167,0.2263,0.2278,0.229,0,0,0,0,0,0,0.2012,0.2048,0.2058,0.2086,0.211,0.2125,0.2137,0.2144,0.2154,0.2151,0.2139,0.2138,0.2171,0.2155,0.2131,0.2203,0.2152,0.2157,0.2226,0.224,0.2251,0.2248,0.21,0,0,0,0,0,0.2017,0.2041,0.2073,0.2095,0.2109,0.2126,0.2138,0.2145,0.2157,0.2161,0.2161,0.2166,0.2187,0.2198,0.2199,0.2235,0.2239,0.2269,0.228,0.229,0.2287,0.2342,0.2359,0.2183,0.2183,0.2183,0,0,0.2016,0.204,0.2053,0.2094,0.2109,0.2145,0.2132,0.2155,0.2189,0.2157,0.2195,0.2197,0.2202,0.2246,0.2261,0.2241,0.2348,0.2295,0.2304,0.2295,0.2349,0.2366,0.2381,0.2186,0.2186,0.2185,0,0,0.2029,0.2049,0.2077,0.2105,0.214,0.2156,0.2168,0.2194,0.221,0.2247,0.2242,0.2277,0.2294,0.2322,0.2336,0.2409,0.2399,0.2414,0.2478,0.2533,0.2548,0.2561,0.2614,0.2631,0.2428,0.2428,0.2429,0,0.2027,0.2071,0.2088,0.2128,0.2154,0.2167,0.2206,0.2231,0.226,0.2281,0.2269,0.2331,0.2336,0.2411,0.2444,0.2437,0.246,0.2429,0.2549,0.2561,0.2573,0.2624,0.2641,0.2434,0.2433,0.2433,0.2432,0,0.2069,0.2106,0.2124,0.2183,0.2212,0.2243,0.2284,0.2314,0.2333,0.2359,0.2421,0.2439,0.248,0.2501,0.2497,0.2592,0.258,0.2552,0.2516,0.2597,0.2646,0.2662,0.2442,0.244,0.2438,0.2437,0,0,0.2061,0.2139,0.2147,0.2181,0.2243,0.2269,0.2332,0.2391,0.2438,0.2472,0.254,0.2594,0.2602,0.2619,0.2631,0.2683,0.2801,0.266,0.266,0.2715,0.2931,0.2887,0.29,0.2797,0.2799,0.2802,0.2941,0,0.2091,0.2165,0.22,0.227,0.2308,0.2346,0.2403,0.2457,0.2505,0.2572,0.2611,0.267,0.2651,0.2686,0.2741,0.2787,0.2844,0.2766,0.2839,0.2842,0.2795,0.2917,0.2676,0.2776,0.2957,0.2959,0.2961,0,0.2128,0.2171,0.224,0.2314,0.2334,0.2379,0.2467,0.2523,0.2616,0.2656,0.2726,0.275,0.2854,0.2809,0.2941,0.2895,0.292,0.2942,0.2947,0.2874,0.2827,0.2718,0.2798,0.2987,0.2985,0.2983,0.2982,0,0.2113,0.22,0.2252,0.228,0.2366,0.2403,0.2452,0.2544,0.2602,0.2716,0.278,0.2872,0.2956,0.2995,0.3066,0.3011,0.3201,0.3126,0.3106,0.3104,0.2894,0.2868,0.3201,0.3201,0.32,0.32,0.32,0,0.2129,0.2169,0.2249,0.2275,0.2328,0.2401,0.2471,0.2539,0.2656,0.2744,0.2823,0.2933,0.3008,0.312,0.3127,0.3203,0.3262,0.3144,0.3147,0.2927,0.2903,0.3062,0.3044,0.3205,0.3204,0.3203,0.3202,0,0.2093,0.2156,0.2206,0.2293,0.2319,0.2355,0.2461,0.2517,0.265,0.2779,0.2824,0.3022,0.3185,0.3252,0.3365,0.3308,0.3354,0.3352,0.3096,0.3065,0.3194,0.318,0.3327,0.3327,0.3327,0.3327,0.3327,0,0.207,0.2096,0.2186,0.2202,0.2235,0.2301,0.2342,0.2484,0.2565,0.2835,0.2904,0.3127,0.3265,0.344,0.339,0.3406,0.3443,0.3165,0.2995,0.3224,0.3213,0.3198,0.3185,0.2772,0.2767,0.2763,0.276,0,0.1993,0.2034,0.2071,0.2117,0.2159,0.2218,0.2311,0.2378,0.2574,0.2729,0.298,0.3123,0.3309,0.3258,0.3281,0.323,0.3135,0.3087,0.3429,0.2774,0.271,0.2696,0.2699,0.2727,0.273,0.2733,0.2734,0.2736,0.1911,0.1909,0.1961,0.2008,0.2066,0.2132,0.2161,0.23,0.245,0.2617,0.284,0.2943,0.3022,0.2927,0.2894,0.2841,0.3006,0.283,0.2837,0.2849,0.2757,0.2696,0.2693,0.2696,0.2699,0.2701,0.2703,0,0.1776,0.1808,0.1839,0.1901,0.1942,0.2022,0.2133,0.2161,0.2311,0.243,0.2571,0.2373,0.2406,0.2513,0.2389,0.2389,0.2307,0.23,0.2176,0.2213,0.2245,0.2116,0.1886,0.1883,0.188,0.1878,0,0,0.1692,0.1684,0.1724,0.1763,0.1827,0.1863,0.1915,0.1983,0.2061,0.2035,0.2025,0.2136,0.2373,0.2026,0.2045,0.1972,0.2053,0.1889,0.255,0.2438,0.2466,0.2568,0.2415,0,0,0,0,0]},{"header":{"parameterUnit":"m.s-1","parameterCategory":2,"la1":30.2991,"la2":30.254,"lo1":-89.0895,"lo2":-89.0444,"dy":0.0017,"dx":0.0017,"nx":28,"ny":28,"refTime":"2023-07-30T21:00:00:Z","depth":"2","parameterNumber":3,"parameterNumberName":"V-component_of_CURRENTS"},"data":[0,0,0,0,0,0,0,0,0,0,0,0,0,0,0,0,0,0,0,0,0,0,0,0,0,0,0,0,0,0,0,0,0,0,0,0,0,0,0,0,0,0,0,0,0,0,0,0,0,0,0,0,0,0,0,0,0,0,-0.0643,-0.0644,0,-0.0722,-0.0723,-0.0724,-0.0789,-0.079,-0.0791,-0.0791,-0.0866,-0.0867,-0.0869,0,0,0,0,0,0,0,0,0,0,0,0,0,-0.0598,-0.0598,-0.0643,-0.0644,-0.0645,-0.0722,-0.0723,-0.0724,-0.0789,-0.079,-0.0791,-0.0792,-0.0866,-0.0867,-0.0869,0,0,0,0,0,0,0,0,0,0,0,0,0,-0.0641,-0.0598,-0.0642,-0.0686,-0.0691,-0.0721,-0.0723,-0.0724,-0.0789,-0.079,-0.0791,-0.0792,-0.0865,-0.0867,-0.0869,-0.0862,0,0,-0.0875,-0.0876,0,0,0,0,0,0,0,0,-0.0639,-0.0643,-0.0679,-0.0683,-0.0689,-0.0746,-0.0735,-0.077,-0.0789,-0.0752,-0.0791,-0.0792,-0.0825,-0.083,-0.0843,-0.0865,-0.0868,-0.0875,-0.0877,-0.0878,-0.0878,0,0,0,0,0,0,0,-0.0636,-0.064,-0.0674,-0.068,-0.0686,-0.0719,-0.0726,-0.0742,-0.0782,-0.0755,-0.076,-0.0768,-0.0827,-0.0841,-0.0845,-0.0869,-0.0875,-0.0877,-0.0878,-0.0879,-0.0917,-0.0916,0,0,0,0,0,0,-0.0621,-0.0637,-0.0672,-0.0677,-0.0665,-0.0719,-0.0726,-0.0727,-0.0782,-0.0791,-0.0767,-0.0771,-0.0837,-0.0843,-0.0848,-0.0859,-0.0878,-0.0879,-0.0881,-0.0917,-0.0917,-0.0916,0,0,0,0,0,0,-0.062,-0.0623,-0.0669,-0.0659,-0.0667,-0.0718,-0.0719,-0.0728,-0.0754,-0.0791,-0.0801,-0.0785,-0.0838,-0.0845,-0.0872,-0.0861,-0.088,-0.0882,-0.0917,-0.0917,-0.0916,-0.0869,0,0,0,0,0,0,-0.0618,-0.0622,-0.0624,-0.0658,-0.0667,-0.068,-0.0718,-0.0729,-0.0757,-0.0763,-0.0809,-0.0816,-0.0839,-0.0869,-0.0874,-0.0865,-0.0884,-0.0917,-0.0917,-0.0917,-0.0871,-0.0867,-0.0864,0,0,0,0,0,-0.0616,-0.0605,-0.0624,-0.0629,-0.0666,-0.0679,-0.0687,-0.0728,-0.0756,-0.0757,-0.0799,-0.0816,-0.087,-0.0871,-0.0877,-0.0867,-0.0918,-0.0917,-0.0917,-0.0872,-0.0868,-0.0864,0,0,0,0,0,0,-0.0586,-0.0612,-0.0633,-0.0632,-0.0653,-0.069,-0.0699,-0.0728,-0.0763,-0.0775,-0.0816,-0.0825,-0.0844,-0.0863,-0.0863,-0.0877,-0.0895,-0.0896,-0.0859,-0.0855,-0.0851,-0.0848,-0.0886,0,0,0,0,0,-0.058,-0.0582,-0.061,-0.0611,-0.062,-0.0663,-0.0678,-0.0704,-0.0736,-0.0753,-0.0788,-0.0821,-0.0844,-0.0856,-0.0879,-0.0885,-0.0922,-0.0883,-0.0879,-0.0876,-0.0878,-0.0934,-0.0936,-0.0915,-0.0915,-0.0915,0,0,-0.0571,-0.0585,-0.0588,-0.0606,-0.063,-0.0634,-0.0674,-0.0692,-0.0701,-0.0754,-0.078,-0.0812,-0.0844,-0.0856,-0.0865,-0.0871,-0.0899,-0.0875,-0.0872,-0.0876,-0.0934,-0.0936,-0.0938,-0.0914,-0.0914,-0.0914,0,0,-0.0545,-0.0562,-0.0557,-0.0567,-0.0595,-0.0617,-0.0621,-0.066,-0.0684,-0.0708,-0.075,-0.078,-0.0813,-0.0835,-0.085,-0.084,-0.0881,-0.0842,-0.0818,-0.0872,-0.0875,-0.0877,-0.0915,-0.0922,-0.0836,-0.0836,-0.0836,0,-0.0537,-0.0534,-0.0557,-0.0551,-0.0561,-0.0606,-0.0603,-0.0625,-0.067,-0.0687,-0.0709,-0.0775,-0.0802,-0.0821,-0.0819,-0.0831,-0.0867,-0.083,-0.0868,-0.0872,-0.0875,-0.0914,-0.0921,-0.0834,-0.0834,-0.0834,-0.0835,0,-0.0507,-0.0508,-0.0503,-0.0513,-0.0521,-0.0525,-0.0553,-0.0571,-0.061,-0.0639,-0.0677,-0.0723,-0.0762,-0.077,-0.0793,-0.0822,-0.084,-0.086,-0.0879,-0.0875,-0.0915,-0.0924,-0.0831,-0.0831,-0.0832,-0.0833,0,0,-0.0493,-0.0485,-0.0487,-0.0487,-0.0505,-0.0508,-0.0515,-0.0538,-0.0546,-0.0598,-0.0612,-0.0666,-0.0703,-0.0723,-0.0756,-0.0802,-0.0853,-0.0837,-0.0841,-0.0874,-0.0968,-0.0888,-0.0891,-0.0886,-0.0887,-0.0888,-0.0982,0,-0.0475,-0.0451,-0.0454,-0.0443,-0.0441,-0.0466,-0.0463,-0.0487,-0.0519,-0.0537,-0.0598,-0.0618,-0.0679,-0.0689,-0.075,-0.0817,-0.0877,-0.0825,-0.0969,-0.0973,-0.0902,-0.0898,-0.0853,-0.0924,-0.0991,-0.0993,-0.0994,0,-0.0467,-0.0448,-0.0427,-0.0415,-0.0415,-0.041,-0.0422,-0.0421,-0.0449,-0.0464,-0.051,-0.0555,-0.0613,-0.0665,-0.0812,-0.0778,-0.0876,-0.0942,-0.0947,-0.0897,-0.0909,-0.0942,-0.0939,-0.101,-0.1008,-0.1007,-0.1006,0,-0.0471,-0.0444,-0.0426,-0.0422,-0.0404,-0.0402,-0.0396,-0.0411,-0.0377,-0.0414,-0.0375,-0.0498,-0.0501,-0.0666,-0.0788,-0.0814,-0.0942,-0.0995,-0.1026,-0.1021,-0.1021,-0.1012,-0.1125,-0.1125,-0.1124,-0.1124,-0.1124,0,-0.0467,-0.0461,-0.0425,-0.0416,-0.038,-0.0383,-0.0345,-0.035,-0.0314,-0.023,-0.033,-0.0273,-0.0501,-0.0586,-0.0763,-0.089,-0.093,-0.1019,-0.1039,-0.0999,-0.0987,-0.1095,-0.109,-0.1128,-0.1127,-0.1126,-0.1125,0,-0.0485,-0.0467,-0.044,-0.0402,-0.0383,-0.036,-0.0269,-0.0222,-0.0194,-0.0078,-0.0065,-0.0104,-0.0204,-0.0424,-0.0656,-0.0798,-0.0969,-0.1014,-0.0932,-0.0939,-0.1033,-0.1025,-0.1086,-0.1084,-0.1082,-0.108,-0.1079,0,-0.0486,-0.0471,-0.0417,-0.0368,-0.0347,-0.029,-0.0225,-0.0176,-0.0077,0.006,0.0149,0.0091,0.0104,-0.0196,-0.0502,-0.08,-0.0881,-0.093,-0.0974,-0.1015,-0.103,-0.1024,-0.1018,-0.0968,-0.0966,-0.0965,-0.0963,0,-0.0464,-0.0453,-0.0416,-0.0318,-0.0247,-0.0137,-0.0024,0.0086,0.0203,0.033,0.0513,0.053,0.0275,0.0013,-0.0385,-0.0594,-0.0885,-0.09,-0.0984,-0.0954,-0.0904,-0.0917,-0.0917,-0.0949,-0.095,-0.0951,-0.0952,-0.0953,-0.0439,-0.04,-0.0334,-0.0237,-0.0132,0.0051,0.019,0.0354,0.0559,0.0795,0.0762,0.0807,0.0463,-0.0018,-0.0337,-0.0699,-0.0743,-0.0887,-0.0894,-0.0903,-0.084,-0.0786,-0.0799,-0.0799,-0.08,-0.08,-0.0801,0,-0.0371,-0.0319,-0.0232,-0.0083,0.0083,0.0119,0.037,0.055,0.0851,0.0961,0.1093,0.0807,0.051,0.0122,-0.0379,-0.0679,-0.075,-0.0773,-0.0812,-0.0824,-0.0835,-0.0772,-0.0712,-0.0712,-0.0712,-0.0713,0,0,-0.0324,-0.023,-0.0176,0.0105,0.0236,0.0511,0.0688,0.0932,0.1078,0.1219,0.121,0.1086,0.0624,0.028,-0.0147,-0.0409,-0.0541,-0.0464,-0.0508,-0.0514,-0.0521,-0.0879,-0.0791,0,0,0,0,0]}],[{"header":{"parameterUnit":"m.s-1","parameterCategory":2,"la1":30.2991,"la2":30.254,"lo1":-89.0895,"lo2":-89.0444,"dy":0.0017,"dx":0.0017,"nx":28,"ny":28,"refTime":"2023-07-30T21:00:00:Z","depth":"4","parameterNumber":2,"parameterNumberName":"U-component_of_CURRENTS"},"data":[0,0,0,0,0,0,0,0,0,0,0,0,0,0,0,0,0,0,0,0,0,0,0,0,0,0,0,0,0,0,0,0,0,0,0,0,0,0,0,0,0,0,0,0,0,0,0,0,0,0,0,0,0,0,0,0,0,0,0.0901,0.0902,0,0.0956,0.0956,0.0957,0.0943,0.0942,0.0941,0.0941,0.1063,0.1067,0.1071,0,0,0,0,0,0,0,0,0,0,0,0,0,0.0794,0.0796,0.0901,0.0902,0.0903,0.0956,0.0956,0.0957,0.0943,0.0942,0.0941,0.094,0.1062,0.1067,0.1072,0,0,0,0,0,0,0,0,0,0,0,0,0,0.0842,0.0797,0.0901,0.0904,0.0905,0.0956,0.0956,0.0957,0.0944,0.0942,0.0941,0.094,0.106,0.1066,0.1072,0.1137,0,0,0.1091,0.1094,0,0,0,0,0,0,0,0,0.084,0.0846,0.0902,0.0904,0.0905,0.0943,0.0964,0.1021,0.0944,0.0927,0.0941,0.0939,0.1032,0.104,0.105,0.1143,0.1148,0.1092,0.1095,0.1098,0.11,0,0,0,0,0,0,0,0.0836,0.0844,0.0921,0.0903,0.0905,0.0906,0.0911,0.0974,0.0986,0.0928,0.0928,0.0937,0.1032,0.1044,0.1053,0.115,0.1091,0.1097,0.1101,0.1103,0.1316,0.1317,0,0,0,0,0,0,0.0835,0.0841,0.0919,0.0922,0.087,0.0909,0.0914,0.093,0.0984,0.0991,0.0939,0.0937,0.1034,0.1045,0.1057,0.1157,0.1098,0.1104,0.1107,0.1314,0.1316,0.1318,0,0,0,0,0,0,0.0832,0.0842,0.0917,0.0884,0.0893,0.0912,0.093,0.0932,0.0959,0.0991,0.0998,0.0965,0.1033,0.1048,0.1118,0.1161,0.1106,0.1112,0.1311,0.1314,0.1317,0.1345,0,0,0,0,0,0,0.0829,0.084,0.0854,0.0884,0.0895,0.0954,0.0932,0.0934,0.0967,0.0965,0.1017,0.1025,0.1033,0.1109,0.1124,0.1168,0.1117,0.1309,0.1313,0.1316,0.1342,0.1349,0.1355,0,0,0,0,0,0.0825,0.0837,0.0855,0.0865,0.0913,0.0955,0.0961,0.0968,0.097,0.0987,0.1018,0.1024,0.1143,0.1116,0.1133,0.118,0.1307,0.1312,0.1316,0.1339,0.1347,0.1355,0,0,0,0,0,0,0.0794,0.0838,0.0858,0.0883,0.0925,0.0953,0.0973,0.0988,0.1026,0.1036,0.1055,0.1067,0.1143,0.1164,0.1133,0.1252,0.1226,0.1234,0.1237,0.1246,0.1252,0.1274,0.1122,0,0,0,0,0,0.0799,0.0825,0.0871,0.0897,0.0923,0.096,0.098,0.0997,0.1033,0.1048,0.1093,0.1138,0.1176,0.1209,0.1254,0.1331,0.1341,0.1371,0.1378,0.1383,0.1413,0.1446,0.1457,0.1333,0.1333,0.1333,0,0,0.0793,0.0825,0.0839,0.0894,0.0931,0.0972,0.0969,0.1018,0.1055,0.1062,0.1141,0.1172,0.1201,0.127,0.1307,0.1293,0.1421,0.1388,0.1392,0.1421,0.1451,0.1463,0.1474,0.1336,0.1335,0.1335,0,0,0.0791,0.0834,0.0853,0.0893,0.0958,0.0996,0.1018,0.1081,0.1109,0.1187,0.1192,0.1249,0.133,0.1351,0.1368,0.1447,0.1453,0.1467,0.1524,0.1554,0.1564,0.1574,0.1584,0.1594,0.1471,0.1471,0.1471,0,0.0782,0.0824,0.0866,0.0899,0.0943,0.1011,0.1055,0.1097,0.1177,0.1218,0.1218,0.134,0.1365,0.143,0.1454,0.1463,0.1477,0.1484,0.1561,0.157,0.1579,0.1588,0.1598,0.1473,0.1473,0.1472,0.1472,0,0.079,0.0836,0.0859,0.0933,0.0982,0.1041,0.1112,0.1184,0.1244,0.1286,0.1385,0.1423,0.1491,0.1507,0.1509,0.1593,0.158,0.1559,0.1535,0.1593,0.1599,0.1609,0.1475,0.1475,0.1474,0.1474,0,0,0.0748,0.0845,0.086,0.0892,0.1015,0.1045,0.115,0.125,0.1312,0.1397,0.147,0.1547,0.1584,0.1608,0.1623,0.1661,0.1724,0.1653,0.1654,0.1653,0.1789,0.1702,0.1705,0.1717,0.172,0.1722,0.1759,0,0.0755,0.0806,0.0878,0.0951,0.0986,0.11,0.1184,0.128,0.1377,0.1467,0.1525,0.1605,0.1612,0.1658,0.1698,0.1724,0.1759,0.1717,0.1744,0.1745,0.1652,0.1717,0.173,0.1767,0.1769,0.1771,0.1772,0,0.0741,0.0782,0.0853,0.0954,0.0986,0.1062,0.1222,0.1302,0.1449,0.1529,0.1632,0.1674,0.1766,0.175,0.1836,0.1812,0.1822,0.183,0.183,0.1756,0.1679,0.1704,0.1791,0.179,0.1788,0.1787,0.1786,0,0.0661,0.076,0.082,0.0856,0.0992,0.1073,0.117,0.1332,0.1422,0.1585,0.1667,0.1761,0.1827,0.1863,0.1903,0.1879,0.1976,0.1922,0.1851,0.1843,0.1893,0.1883,0.1986,0.1986,0.1985,0.1985,0.1985,0,0.0631,0.0665,0.0792,0.082,0.0912,0.1023,0.1161,0.1283,0.146,0.1566,0.1693,0.1777,0.1868,0.1926,0.1932,0.1936,0.1998,0.1888,0.1861,0.1901,0.1892,0.1899,0.1889,0.1987,0.1986,0.1986,0.1986,0,0.0528,0.0619,0.0665,0.0814,0.088,0.0937,0.1161,0.1239,0.1441,0.1588,0.1648,0.1816,0.1902,0.1962,0.2024,0.1971,0.1977,0.196,0.2016,0.1986,0.1809,0.18,0.1865,0.1863,0.1861,0.1859,0.1858,0,0.0485,0.0501,0.0638,0.0689,0.0777,0.0905,0.1004,0.1222,0.1318,0.1592,0.163,0.1793,0.1883,0.1896,0.1967,0.1981,0.1961,0.1944,0.1874,0.1837,0.1804,0.1798,0.1792,0.1855,0.1854,0.1853,0.1853,0,0.0382,0.0436,0.0481,0.0602,0.0706,0.0802,0.0962,0.1037,0.1284,0.1454,0.1601,0.1686,0.1781,0.183,0.188,0.1876,0.1942,0.1922,0.1925,0.1858,0.1824,0.1792,0.1788,0.1846,0.1847,0.1847,0.1848,0,0.0305,0.0306,0.0396,0.0499,0.0612,0.0702,0.0794,0.0939,0.1078,0.1389,0.142,0.1608,0.1755,0.1777,0.181,0.1824,0.1783,0.1708,0.1721,0.173,0.1674,0.1611,0.1566,0,0,0,0,0,0.0229,0.024,0.0301,0.0416,0.0522,0.0612,0.0772,0.0869,0.1105,0.1168,0.1316,0.141,0.1531,0.1607,0.1593,0.1727,0.1766,0.1702,0.1679,0.1806,0.1814,0.1763,0,0,0,0,0,0,0.0182,0.0215,0.0256,0.0345,0.0419,0.0538,0.0636,0.0781,0.0838,0.1072,0.1126,0.1313,0.1416,0.1519,0.156,0.1587,0.1542,0.1819,0.1815,0.1801,0.1809,0.1815,0.1766,0,0,0,0,0]},{"header":{"parameterUnit":"m.s-1","parameterCategory":2,"la1":30.2991,"la2":30.254,"lo1":-89.0895,"lo2":-89.0444,"dy":0.0017,"dx":0.0017,"nx":28,"ny":28,"refTime":"2023-07-30T21:00:00:Z","depth":"4","parameterNumber":3,"parameterNumberName":"V-component_of_CURRENTS"},"data":[0,0,0,0,0,0,0,0,0,0,0,0,0,0,0,0,0,0,0,0,0,0,0,0,0,0,0,0,0,0,0,0,0,0,0,0,0,0,0,0,0,0,0,0,0,0,0,0,0,0,0,0,0,0,0,0,0,0,0.0233,0.0233,0,0.0212,0.0212,0.0211,0.0197,0.0197,0.0196,0.0196,0.0083,0.008,0.0077,0,0,0,0,0,0,0,0,0,0,0,0,0,0.0206,0.0207,0.0233,0.0233,0.0232,0.0212,0.0212,0.0211,0.0197,0.0197,0.0196,0.0196,0.0083,0.008,0.0077,0,0,0,0,0,0,0,0,0,0,0,0,0,0.0205,0.0207,0.0233,0.0222,0.0221,0.0212,0.0212,0.0211,0.0197,0.0197,0.0196,0.0196,0.0085,0.008,0.0076,0.0054,0,0,0.0063,0.0061,0,0,0,0,0,0,0,0,0.0205,0.0206,0.0224,0.0223,0.0221,0.0206,0.016,0.0154,0.0197,0.0207,0.0196,0.0196,0.0115,0.0108,0.0107,0.0049,0.0044,0.0063,0.006,0.0058,0.0057,0,0,0,0,0,0,0,0.0206,0.0207,0.0225,0.0224,0.0222,0.0199,0.02,0.0159,0.0161,0.0206,0.0205,0.0201,0.0114,0.0111,0.0104,0.0043,0.0063,0.0059,0.0056,0.0055,-0.0097,-0.0098,0,0,0,0,0,0,0.021,0.0207,0.0226,0.0224,0.0212,0.02,0.0201,0.0212,0.0164,0.0157,0.0201,0.0201,0.0119,0.0109,0.01,0.0045,0.0058,0.0054,0.0052,-0.0095,-0.0097,-0.0099,0,0,0,0,0,0,0.021,0.0213,0.0227,0.0214,0.0214,0.0201,0.0214,0.0211,0.021,0.0161,0.0153,0.0203,0.0118,0.0106,0.0067,0.0041,0.0052,0.0048,-0.0094,-0.0096,-0.0098,-0.0048,0,0,0,0,0,0,0.021,0.0213,0.0227,0.0215,0.0215,0.0222,0.0214,0.0211,0.0208,0.0207,0.0159,0.0149,0.0117,0.0074,0.0063,0.0036,0.0045,-0.0092,-0.0095,-0.0097,-0.0048,-0.0048,-0.0048,0,0,0,0,0,0.0209,0.0233,0.0228,0.023,0.0233,0.0222,0.022,0.021,0.0209,0.0208,0.0178,0.015,0.0047,0.007,0.0057,0.0028,-0.0091,-0.0094,-0.0097,-0.0047,-0.0048,-0.0048,0,0,0,0,0,0,0.0232,0.0233,0.0227,0.0251,0.0235,0.0219,0.0225,0.0213,0.0193,0.0192,0.0147,0.0134,0.0083,0.0049,0.0075,-0.0028,-0.0033,-0.0039,0.0009,0.0008,0.0007,0.0006,0.0041,0,0,0,0,0,0.0242,0.0258,0.0244,0.0261,0.0258,0.0241,0.0237,0.0227,0.0205,0.0197,0.016,0.0111,0.0059,0.0033,-0.0016,-0.0059,-0.0093,-0.0094,-0.0094,-0.0094,-0.0107,-0.0178,-0.0185,-0.0109,-0.0109,-0.0109,0,0,0.0257,0.0257,0.0267,0.0266,0.0258,0.0251,0.0239,0.0236,0.0222,0.0185,0.0157,0.0111,0.0047,-0.0004,-0.0032,-0.0033,-0.0128,-0.0098,-0.0097,-0.0111,-0.0182,-0.0189,-0.0196,-0.0111,-0.0111,-0.0111,0,0,0.028,0.0293,0.0305,0.0296,0.0282,0.0267,0.0266,0.0244,0.023,0.0198,0.0158,0.0101,0.0036,-0.0021,-0.0056,-0.0092,-0.0127,-0.0112,-0.0114,-0.0181,-0.0187,-0.0194,-0.0211,-0.0219,-0.0112,-0.0112,-0.0112,0,0.029,0.0309,0.0305,0.0306,0.0303,0.0275,0.0276,0.0254,0.0218,0.0198,0.019,0.0072,0.0021,-0.0056,-0.0073,-0.0093,-0.0117,-0.0097,-0.0179,-0.0186,-0.0193,-0.021,-0.022,-0.011,-0.011,-0.011,-0.0111,0,0.0311,0.0327,0.0334,0.0326,0.032,0.0318,0.0287,0.0267,0.0243,0.0211,0.0138,0.0068,-0.0003,-0.0038,-0.0065,-0.015,-0.0143,-0.0165,-0.0168,-0.0197,-0.0214,-0.0225,-0.0107,-0.0108,-0.0108,-0.0109,0,0,0.0315,0.0345,0.0344,0.0354,0.0333,0.0332,0.0305,0.0269,0.0252,0.0189,0.0153,0.0044,0.0007,-0.004,-0.0092,-0.0161,-0.0222,-0.0181,-0.0185,-0.018,-0.0333,-0.0313,-0.0323,-0.0252,-0.0255,-0.0257,-0.031,0,0.0322,0.0352,0.0355,0.0367,0.0376,0.0351,0.0333,0.0295,0.0254,0.0209,0.0116,0.0058,0.0007,-0.0026,-0.0105,-0.0195,-0.0255,-0.0203,-0.0323,-0.0327,-0.0292,-0.0338,-0.0265,-0.0318,-0.0321,-0.0323,-0.0324,0,0.0316,0.0345,0.0378,0.0399,0.0401,0.0402,0.0375,0.0356,0.0282,0.0246,0.0165,0.0101,-0.001,-0.0047,-0.0217,-0.0176,-0.0256,-0.0326,-0.033,-0.0344,-0.0329,-0.0297,-0.0345,-0.0343,-0.0341,-0.034,-0.0339,0,0.0311,0.0346,0.0384,0.0392,0.0412,0.0419,0.0418,0.0367,0.0353,0.0271,0.0245,0.0113,0.0049,-0.0084,-0.0226,-0.0223,-0.04,-0.041,-0.0465,-0.0462,-0.0481,-0.0474,-0.0541,-0.0541,-0.0541,-0.054,-0.054,0,0.0305,0.0329,0.0396,0.0419,0.0458,0.0455,0.0468,0.044,0.0396,0.0375,0.0273,0.0218,0.0031,-0.0087,-0.0214,-0.0366,-0.0391,-0.0479,-0.0493,-0.0453,-0.0444,-0.0486,-0.0479,-0.0542,-0.0542,-0.0542,-0.0541,0,0.0297,0.0331,0.0384,0.0443,0.0463,0.0495,0.0525,0.0523,0.0479,0.0447,0.0423,0.0286,0.013,-0.0039,-0.0253,-0.0341,-0.0492,-0.054,-0.0454,-0.0459,-0.0502,-0.0492,-0.0601,-0.0601,-0.0601,-0.0601,-0.0601,0,0.0307,0.0338,0.0426,0.0464,0.0502,0.055,0.0575,0.0562,0.0558,0.0484,0.0465,0.0319,0.021,-0.005,-0.0239,-0.0463,-0.0505,-0.0556,-0.0573,-0.0516,-0.0518,-0.0507,-0.0497,-0.0602,-0.0602,-0.0602,-0.0602,0,0.0337,0.0367,0.042,0.0503,0.0555,0.0605,0.064,0.0641,0.0613,0.0585,0.049,0.0343,0.0171,-0.0044,-0.0219,-0.0387,-0.0511,-0.0558,-0.0559,-0.0576,-0.0518,-0.0517,-0.0507,-0.0602,-0.0602,-0.0602,-0.0602,0,0.0362,0.04,0.0464,0.0527,0.0594,0.0627,0.0651,0.0648,0.064,0.0566,0.0537,0.0349,0.0238,-0.0005,-0.017,-0.0329,-0.0375,-0.0413,-0.0423,-0.0425,-0.0368,-0.0268,-0.0301,0,0,0,0,0,0.0379,0.0406,0.0477,0.0532,0.0598,0.0624,0.0674,0.0684,0.0669,0.0616,0.0575,0.0417,0.0159,0.0043,-0.0115,-0.0187,-0.041,-0.0376,-0.046,-0.0605,-0.0604,-0.0569,0,0,0,0,0,0,0.0383,0.0444,0.0468,0.0521,0.0551,0.061,0.0639,0.0635,0.0605,0.0577,0.0443,0.0382,0.013,0.0238,-0.0123,-0.0173,-0.0243,-0.0497,-0.05,-0.0605,-0.0604,-0.0604,-0.0568,0,0,0,0,0]}]]